Location: Larrial
(48.2758°N, 4.5331°W)
Time: 09:46:37
(UTC+00:00)

XW-2F - Pass Details

Date: 07 December 2021
Orbit: 495 x 515 km, 97.5° (Epoch: 15 January)

Event Time Altitude Azimuth Distance (km) Brightness Sun altitude
Rises 06:11:41 0° 19° (NNE) 2,651 ? -16.4°
Reaches altitude 10° 06:13:53 10° 26° (NNE) 1,757 ? -16.0°
Maximum altitude 06:17:30 42° 98° (E) 751 ? -15.4°
Drops below altitude 10° 06:21:04 10° 171° (S) 1,736 ? -14.9°
Sets 06:23:13 0° 178° (S) 2,614 ? -14.5°
